Orbital Elements at Epoch 2459200.5 (2020-Dec-17.0) TDB
Reference: JPL 18 (heliocentric ecliptic J2000)
Element | Value | Uncertainty (1-sigma) | Units |
e | .07495596937296033 | 4.5379e-08 | |
a | 3.227383760525934 | 2.7791e-08 | au |
q | 2.985472082217163 | 1.4226e-07 | au |
i | 5.018337888723279 | 7.0423e-06 | deg |
node | 321.6648694451939 | 6.7384e-05 | deg |
peri | 291.8144594957177 | 8.8543e-05 | deg |
M | 117.1444363903616 | 5.9825e-05 | deg |
tp | 2458511.382137357709 (2019-Jan-27.88213736) | 0.00034912 | TDB |
period | 2117.748295997063 5.80 | 2.7354e-05 7.489e-08 | d yr |
n | .1699918732931891 | 2.1957e-09 | deg/d |
Q | 3.469295438834705 | 2.9874e-08 | au |
|
| | Orbit Determination Parameters
Additional Information
|